AirNav   Free Bose Alto or Rondo audio sunglasses
 
 1362 users online  

NH79 Falcon Station Heliport
West Epping, New Hampshire, USA

GOING TO WEST EPPING?


FAA INFORMATION EFFECTIVE 03 DECEMBER 2020

Location

FAA Identifier: NH79
Lat/Long: 43-02-26.3070N 071-07-32.2190W
43-02.438450N 071-07.536983W
43.0406408,-71.1256164
(estimated)
Elevation: 160 ft. / 49 m (estimated)
Variation: 16W (1990)
From city: 2 miles W of WEST EPPING, NH
Time zone: UTC -5 (UTC -4 during Daylight Saving Time)
Zip code: 03042

Heliport Operations

Heliport use: Private use. Permission required prior to landing
Activation date: 02/1993
Control tower: no
ARTCC: BOSTON CENTER
FSS: BANGOR FLIGHT SERVICE STATION
Attendance: UNATNDD
Segmented circle: no

Heliport Communications

WX ASOS at MHT (15 nm SW): 119.55 (603-621-1766)
WX ASOS at DAW (17 nm NE): 135.275 (603-332-7814)
WX ASOS at CON (19 nm NW): 132.325 (603-224-6558)
WX ASOS at LWM (19 nm S): PHONE 978-687-8017

Nearby radio navigation aids

VOR radial/distance  VOR name  Freq  Var
PSMr274/13.1PEASE VOR/DME116.5016W
MHTr061/14.9MANCHESTER VOR/DME114.4015W
LWMr011/18.1LAWRENCE VOR/DME112.5015W
CONr134/22.4CONCORD VOR/DME112.9015W
ENEr241/32.2KENNEBUNK VOR/DME117.1017W

 
NDB name  Hdg/Dist  Freq  Var  ID
ROLLINS246/16.926016WESG . ... --.

Heliport Services

Runway Information

Helipad H1

Dimensions: 50 x 50 ft. / 15 x 15 m
Surface: turf
Traffic pattern: leftleft

Heliport Ownership and Management from official FAA records

Ownership: Privately-owned
Owner: MICHAEL E SWEENEY
NOTTINGHAM RD/FOLSOM MILL LA
WEST EPPING, NH 03042
Phone 603-679-5363
Manager: MICHAEL E SWEENEY
NOTTINGHAM RD/FOLSOM MILL LA
WEST EPPING, NH 08042
Phone 603-679-8304

Additional Remarks

A52-H1 TREES IN VICINITY OF PAD.
FOR CD CTC BOSTON APCH AT 603-594-5551.

Instrument Procedures

There are no published instrument procedures at NH79.

Some nearby airports with instrument procedures:

KPSM - Portsmouth International Airport at Pease (13 nm E)
KMHT - Manchester Airport (15 nm SW)
3B4 - Littlebrook Air Park (17 nm E)
KDAW - Skyhaven Airport (17 nm NE)
KCON - Concord Municipal Airport (19 nm NW)
KLWM - Lawrence Municipal Airport (19 nm S)
 
Loc | Ops | Rwys | IFR | FBO | Links
Com | Nav | Svcs | Stats | Notes
Area around NH79 (Falcon Station Heliport)
 
Road maps at: MapQuest Bing Google
 
Aerial photo
No photo
 
Sectional chart

 
Airport distance calculator
Flying to Falcon Station Heliport? Find the distance to fly.

From to NH79

Sunrise and sunset
Times for 03-Dec-2020
 Local
(UTC-5)
 Zulu
(UTC)
Morning civil twilight06:2811:28
Sunrise07:0012:00
Sunset16:0921:09
Evening civil twilight16:4121:41

Current date and time
Zulu (UTC)  03-Dec-2020 20:49:00
Local (UTC-5)  03-Dec-2020 15:49:00
 
METAR
KPSM 
14nm E 
031956Z 20006KT 10SM FEW250 09/M05 A3003 RMK AO2A SLP172 T00881055
KMHT 
15nm SW 
031953Z 21007KT 10SM FEW250 09/M04 A3002 RMK AO2 SLP183 T00941044
KDAW 
17nm NE 
031951Z AUTO VRB03KT 10SM CLR 08/M03 A3002 RMK AO2 SLP167 T00781028
KCON 
19nm NW 
031951Z AUTO 19006KT 10SM CLR 08/M03 A3003 RMK AO2 SLP171 T00831033
KLWM 
19nm S 
031954Z 23008KT 10SM CLR 10/M04 A3007 RMK AO2 SLP181 T01001039
KASH 
24nm SW 
031956Z VRB03KT 10SM CLR 08/M04 A3005 RMK AO2 SLP183 T00831039
KSFM 
27nm NE 
031956Z AUTO 21007KT 10SM CLR 07/M03 A3003 RMK AO2 SLP175 T00721028 PNO $
TAF
KPSM 
14nm E 
031735Z 0318/0418 22008KT P6SM SCT045
KMHT 
15nm SW 
031735Z 0318/0418 19008KT P6SM SCT250
KCON 
19nm NW 
031735Z 0318/0418 22007KT P6SM SCT250
NOTAMs
Click for the latest NOTAMs
NOTAMs are issued by the DoD/FAA and will open in a separate window not controlled by AirNav.

 

 
 

Would you like to see your business listed on this page?

 If your business provides an interesting product or service to pilots, flight crews, aircraft, or users of the Falcon Station Heliport, you should consider listing it here.  To start the listing process, click on the button below
 
Add a business
 

Other Pages about Falcon Station Heliport

Update a link
 
Copyright © AirNav, LLC. All rights reserved. Privacy Policy  Contact